Location: Newark
(43.7833°N, 1.0833°E)
Time: 08:24:36
(UTC+00:00)

Envisat - Visible Passes

Search period start: 22 September 2019 00:00
Search period end: 02 October 2019 00:00
Orbit: 764 x 766 km, 98.1° (Epoch: 22 September)

Date Brightness Start Highest point End Pass type
(mag) Time Alt. Az. Time Alt. Az. Time Alt. Az.
23 Sep 5.7 19:14:06 10° SW 19:17:49 20° W 19:21:35 10° NW visible
24 Sep 4.4 18:35:58 10° S 18:40:47 43° W 18:45:39 10° NNW visible
25 Sep 6.2 19:42:00 10° WSW 19:43:39 11° W 19:45:18 10° WNW visible
26 Sep 5.4 19:02:18 10° SSW 19:06:28 25° W 19:10:40 10° NW visible
27 Sep 3.9 18:24:31 10° S 18:29:29 55° W 18:34:30 10° NNW visible
28 Sep 6.0 19:29:26 10° WSW 19:32:14 15° W 19:35:04 10° NW visible
29 Sep 5.0 18:50:37 10° SSW 18:55:07 32° W 18:59:39 10° NNW visible
30 Sep 3.4 18:13:09 10° S 18:18:12 69° WSW 18:23:18 10° NNW visible
01 Oct 5.8 19:17:20 10° SW 19:20:51 19° W 19:24:23 10° NW visible
